User: anonymous
Location: Vancouver
(49.2500°N, 123.1330°W)
Time: 18:45:45
(UTC-07:00)
Language:

Cosmos 1864 Rocket - Orbit

View from above orbital plane
View from above orbital plane
View from above satellite
View from above satellite

Ground track
Ground track

The orbit data is extracted from the following two-line orbital elements,

1 18161U 87057B   14260.71532576  .00000192  00000-0  17941-3 0  5558
2 18161 082.9306 098.6219 0030264 239.9541 167.6071 13.76862938346138
Epoch (UTC): 17 September 2014 17:10:04
Eccentricity: 0.0030264
inclination: 82.9306°
perigee height: 953 km
apogee height: 997 km
right ascension of ascending node: 98.6219°
argument of perigee: 239.9541°
revolutions per day: 13.76862938
mean anomaly at epoch: 167.6071°
orbit number at epoch: 34613

The dashed part of the orbit path shows where the satellite is in the earth's shadow,  

DLR